Flag Weather past 2 weeks in Titisee-Neustadt, Baden-Württemberg, Germany

Now
47 °F

Scattered clouds.


Feels Like: 47 °F
Forecast: 44 / 53 °F
Wind: 1 mph from West

Location: Freiburg

Current Time: Oct 31, 2014 at 10:33:17 AM

Latest Report: Oct 31, 2014 at 9:00 AM


Visibility: 6 mi

Pressure: 30.32 "Hg

Humidity: 97%

Dew point: 46 °F

Location of Titisee-NeustadtLocation

Historic Weather in Titisee-Neustadt — Graph

°F

Titisee-Neustadt temperature yesterday

Maximum temperature yesterday: 64 °F (at 3:00 PM)
Minimum temperature yesterday: 44 °F (at 11:00 PM)
Average temperature yesterday: 53 °F

Past Weeks' High & Low Weather Summary

 TemperatureHumidityPressure
High75 °F (Oct 19, 3:00 PM)100% (Oct 18, 1:00 AM)30.33 "Hg (Oct 18, 1:00 AM)
Low35 °F (Oct 24, 7:00 AM)46% (Oct 19, 3:00 PM)29.73 "Hg (Oct 21, 6:00 PM)
Average53 °F84%30.15 "Hg
* Reported Oct 16 10:00 AM — Oct 31 9:00 AM, Titisee-Neustadt, Weather by CustomWeather, © 2014

Note: Actual official high and low records may vary slightly from our data, if they occured in-between our weather recording intervals... More about our weather records

Advertising

Titisee-Neustadt weather history for previous 24 hours

 ConditionsComfort  
Time TempWeatherWind HumidityBarometerVisibility
9:00 AM
Oct 31
47 °FScattered clouds.1 mph97%30.32 "Hg6 mi
8:00 AM40 °FPassing clouds.1 mph98%30.32 "Hg4 mi
6:00 AM40 °FDense fog.1 mph99%30.32 "Hg0 mi
5:00 AM40 °FPassing clouds.1 mph100%30.32 "Hg1 mi
3:00 AM41 °FClear.1 mph98%30.33 "Hg9 mi
2:00 AM42 °FPassing clouds.No wind98%30.32 "Hg0 mi
12:00 AM44 °FClear.1 mph99%30.31 "Hg3 mi
11:00 PM
Oct 30
44 °FClear.No wind95%30.32 "Hg6 mi
9:00 PM49 °FFog.1 mph98%30.30 "Hg4 mi
8:00 PM50 °FPassing clouds.1 mph97%30.29 "Hg9 mi
6:00 PM53 °FPassing clouds.1 mph89%30.29 "Hg12 mi
5:00 PM59 °FClear.1 mph68%30.25 "Hg25 mi
3:00 PM64 °FPassing clouds.1 mph56%30.24 "Hg19 mi
2:00 PM62 °FPassing clouds.1 mph60%30.25 "Hg19 mi
12:00 PM58 °FOvercast.2 mph79%30.27 "Hg14 mi
11:00 AM55 °FOvercast.1 mph85%30.27 "Hg11 mi
Weather by CustomWeather, © 2014

See weather overviewHow to use our weather pages